Location: Potawatomi Wildlife Park
(41.2308°N, 86.1050°W)
Time: 18:13:43
(UTC-04:00)

Daily predictions for brighter satellites

Satellite Brightness Start Highest point End
(mag) Time Altitude Azimuth Time Altitude Azimuth Time Altitude Azimuth
COSMOS 2428 3.8 21:50:44 10° N 21:55:45 31° NE 22:00:45 10° ESE
SPOT 5 3.4 21:54:10 10° SE 21:58:26 41° ENE 22:02:59 10° N
Cosmos 968 Rocket 4.5 21:54:34 10° SW 21:59:37 53° WNW 22:04:45 10° N
NOSS 3-1 (A) 4.3 21:55:16 10° SSE 21:59:55 25° ESE 22:04:54 10° ENE
SJ-11-01 4.4 21:58:17 10° S 22:03:00 82° WSW 22:07:46 10° NNW
PSLV R/B 4.2 22:00:48 10° SE 22:03:33 29° ENE 22:06:16 10° N
Cosmos 2219 Rocket 3.9 21:59:48 10° N 22:03:46 19° NE 22:07:43 10° E
Cosmos 304 Rocket 4.0 21:59:37 10° NNW 22:04:25 60° ENE 22:09:09 10° SSE
ARGOS 4.5 22:00:07 10° ESE 22:04:26 25° ENE 22:08:46 10° N
Meteor 2-2 Rocket 4.4 21:58:53 10° N 22:04:55 87° E 22:10:58 10° S
Cosmos 1500 Rocket 4.2 22:10:38 10° SSW 22:14:56 58° W 22:19:19 10° N
Cosmos 1437 2.7 22:16:15 10° S 22:19:30 67° E 22:22:46 10° NNE
Cosmos 1328 3.9 22:16:40 10° S 22:20:32 57° E 22:24:26 10° NNE
Cosmos 1726 3.5 22:17:52 10° NNE 22:21:01 24° ENE 22:23:25 14° ESE
ATLAS 2AS CENTAUR R/B 4.2 22:18:20 11° SE 22:22:37 18° ESE 22:27:25 10° ENE
Envisat 3.1 22:20:18 10° SSE 22:25:23 83° WSW 22:30:30 10° NNW
ERS-1 Rocket 3.9 22:21:41 10° S 22:26:32 47° W 22:31:24 10° NNW
Cosmos 2219 3.2 22:22:56 10° SSW 22:28:38 68° ESE 22:34:22 10° NNE
Delta 2 Rocket 3.7 22:26:37 10° WSW 22:29:53 32° S 22:31:53 18° SE
deb Chang Zheng 4 4.3 22:26:43 10° N 22:30:58 56° WNW 22:35:12 10° SSW
Cosmos 2237 Rocket 3.8 22:30:58 10° N 22:35:26 23° NE 22:39:42 11° ESE
ATLAS 3B R/B 4.5 22:31:33 10° NNW 22:36:55 22° NNE 22:42:02 10° E
Cosmos 2322 4.0 22:32:03 10° NNW 22:37:42 65° WSW 22:43:02 11° S
Cosmos 2322 Rocket 4.3 22:33:45 10° NW 22:37:54 21° W 22:42:02 10° SSW
SL-23 DEB 3.9 22:32:57 10° NW 22:38:10 83° SW 22:40:32 20° SE
Cosmos 1271 Rocket 4.0 22:34:56 10° NNE 22:38:11 25° ENE 22:40:05 17° ESE
Cosmos 2112 Rocket 4.1 22:33:32 10° NNW 22:38:47 81° WSW 22:43:24 14° SSE
Cosmos 2151 3.3 22:37:14 10° SSW 22:41:24 66° W 22:45:36 10° N
Cosmos 1703 4.5 22:41:15 19° SE 22:42:52 25° E 22:46:07 10° NNE
SL-14 R/B 3.6 22:40:06 16° SSE 22:43:01 48° E 22:46:53 10° NNE
Meteor 1-4 Rocket 3.7 22:40:23 10° N 22:43:45 31° ENE 22:45:29 21° ESE
Cosmos 2242 Rocket 4.4 22:40:00 10° N 22:44:09 37° ENE 22:46:44 20° SE
Cosmos 1937 Rocket 4.1 22:41:23 15° SSE 22:45:12 35° E 22:49:54 10° NE
NOSS 3-1 (C) 3.3 22:40:19 10° SSW 22:46:07 73° ESE 22:52:34 10° NE
Terra 3.3 22:43:25 15° ESE 22:46:09 24° ENE 22:49:54 10° NNE
Meteor 1-27 4.3 22:40:30 10° N 22:46:11 69° E 22:50:34 17° SSE
Cosmos 2298 Rocket 4.1 22:41:32 10° S 22:46:45 61° ESE 22:52:00 10° NNE
Cosmos 2360 Rocket 2.8 22:41:42 10° NNW 22:47:10 52° WSW 22:52:21 11° S
SL-16 R/B 4.5 22:45:34 10° WNW 22:49:22 19° W 22:53:10 10° SW
MetOp-B 4.2 22:44:55 13° S 22:49:47 81° WSW 22:55:10 10° NNW
NOAA 11 4.3 22:47:19 18° SSE 22:51:17 60° ENE 22:56:41 10° N
Sich 1 3.2 22:48:46 16° S 22:52:06 57° E 22:56:26 10° NNE
FALCON 9 R/B 4.4 22:17:49 10° WSW 22:52:22 65° S 23:00:23 10° E
CZ-4 SHROUD 4.3 22:51:29 14° SSW 22:53:56 41° W 22:56:56 10° NNW
USA 245 2.0 22:53:37 37° SSE 22:54:25 73° ENE 22:56:44 10° N
DELTA 2 R/B (1) 4.2 22:49:55 10° W 22:55:03 40° SSW 22:58:07 22° SSE
Cosmos 1633 Rocket 3.1 22:52:39 18° S 22:55:47 59° E 23:00:05 10° NNE
Cosmos 2058 3.0 22:52:22 10° SSW 22:56:28 74° W 23:00:34 10° N
OAO 2 Rocket 4.1 22:56:00 10° SW 23:00:44 33° SSE 23:03:20 21° ESE
Cosmos 1626 3.6 23:01:03 20° E 23:01:31 21° E 23:04:23 10° NE
COSMOS 2455 4.5 23:00:58 10° N 23:05:44 24° NE 23:10:13 11° E
SL-08 RB Rocket 3.6 23:06:50 25° SSE 23:09:22 78° ENE 23:13:53 10° N
CZ-4 R/B 3.8 23:04:31 10° NNE 23:09:29 78° ESE 23:13:19 16° S
H-2A R/B 2.6 23:08:02 24° SE 23:10:59 49° ENE 23:16:13 10° N
CZ-4B R/B 3.7 23:05:58 10° N 23:11:14 75° WNW 23:16:24 10° SSW
Cosmos 1805 Rocket 4.3 23:06:58 10° SSW 23:11:21 54° W 23:15:43 10° N
Meteor 1-11 4.5 23:08:37 10° SSW 23:14:23 73° WNW 23:20:07 10° N
Cosmos 2227 Rocket 2.6 23:11:30 24° SSE 23:14:26 42° ESE 23:19:44 10° NE
YAOGAN 6 3.6 23:12:45 18° SSW 23:15:05 40° W 23:18:31 10° NNW
Cosmos 1300 3.4 23:11:48 10° NNW 23:15:32 49° W 23:17:53 20° SSW
Tiangong 1 0.8 23:13:12 10° WSW 23:16:17 71° SSE 23:17:13 40° E
SPOT 1/Viking Rocket 4.0 23:19:48 19° S 23:23:22 55° W 23:28:28 10° NNW
Cosmos 1241 Rocket 4.5 23:22:15 15° S 23:27:21 58° ESE 23:33:28 10° NE
Cosmos 1898 Rocket 3.8 23:23:00 10° SSW 23:28:08 67° WNW 23:33:21 10° NNE
Cosmos 2333 Rocket 2.4 23:22:47 10° NNW 23:28:31 64° ENE 23:31:18 31° SE
SL-16 R/B 3.6 23:24:11 10° N 23:28:59 27° NE 23:32:01 17° E
IGS 5A 3.7 23:29:11 38° SE 23:30:26 54° ENE 23:34:32 10° N
SeaSat 1 4.4 23:29:32 12° E 23:32:29 19° NE 23:35:52 10° N
Cosmos 1125 Rocket 4.4 23:33:30 28° ESE 23:34:16 29° E 23:38:49 10° NE
Cosmos 220 Rocket 4.0 23:31:40 21° SSW 23:34:34 81° WNW 23:39:02 10° NNE
Cosmos 1455 2.2 23:34:23 10° N 23:38:10 62° E 23:38:49 52° SE
Nadezhda 1 Rocket 3.9 23:33:05 10° N 23:39:12 82° E 23:42:17 31° SSE
COSMOS 2428 3.7 23:34:50 10° NW 23:40:05 39° WSW 23:43:18 21° SSW
SAR-Lupe-2 3.5 23:40:40 57° ESE 23:41:09 66° ENE 23:44:43 10° N
Cosmos 2297 Rocket 2.4 23:39:28 34° SSE 23:41:26 49° ESE 23:46:51 10° NE
ARGOS 4.0 23:41:02 20° SSW 23:44:25 44° W 23:49:33 10° NNW
Cosmos 1470 Rocket 3.6 23:45:42 36° SSW 23:47:25 76° W 23:51:45 10° N
Cosmos 2219 Rocket 2.3 23:42:41 10° NNW 23:48:15 69° WSW 23:50:35 35° S
Cosmos 1933 Rocket 3.6 23:46:48 35° SSW 23:48:38 78° W 23:53:08 10° N
NOSS 3-1 (A) 4.1 23:44:26 10° SW 23:50:15 56° NW 23:56:44 10° NNE
Cosmos 1745 Rocket 4.2 23:47:12 20° SSW 23:51:42 69° W 23:57:53 10° N
Cosmos 1703 Rocket 4.4 23:48:00 10° N 23:52:00 34° ENE 23:52:36 33° E
Cosmos 1869 3.2 23:51:34 10° N 23:55:39 84° E 23:56:15 63° SSE
Cosmos 1726 4.4 23:53:25 10° NW 23:56:14 20° W 23:58:06 15° SW
